Regional Weather Roundup
Issued by NWS

Home | Current Version | Previous Version | Graphics & Text | Print | Product List | Glossary Off
Versions: 1 2 3 4 5 6 7 8 9 10 11 12 13 14 15 16 17 18 19 20 21 22 23 24 25 26 27 28 29 30 31 32 33 34 35 36 37 38 39 40 41 42 43 44 45 46 47 48 49 50

299
ASUS43 KTOP 041859
RWRKS

WEATHER ROUNDUP FOR KANSAS
NATIONAL WEATHER SERVICE GOODLAND KS
200 PM CDT WED MAY 04 2016

NOTE:  "FAIR" INDICATES FEW OR NO CLOUDS BELOW 12,000 FEET WITH NO
SIGNIFICANT WEATHER AND/OR OBSTRUCTIONS TO VISIBILITY.

KSZ001>006-013>018-027>032-041>047-042000-
NORTHWEST KANSAS

CITY           SKY/WX    TMP DP  RH WIND       PRES   REMARKS
GOODLAND       SUNNY     73  36  25 MISG      30.17F
HAYS           SUNNY     72  41  33 N14       30.11F
HILL CITY      SUNNY     74  39  28 N14       30.12F
RUSSELL        SUNNY     71  37  28 N10G23    30.09F
$$

KSZ061>065-074>080-084>089-042000-
SOUTHWEST KANSAS

CITY           SKY/WX    TMP DP  RH WIND       PRES   REMARKS
DODGE CITY     SUNNY     74  44  34 NW13G22   30.12F
ELKHART          N/A     75  41  29 N6          N/A
GARDEN CITY    SUNNY     74  42  31 N10       30.13F
GREAT BEND     SUNNY     70  43  37 N16       30.10F
LIBERAL        SUNNY     75  43  31 CALM      30.16F
$$

KSZ066>073-081>083-090>101-042000-
SOUTHEAST KANSAS

CITY           SKY/WX    TMP DP  RH WIND       PRES   REMARKS
CHANUTE        SUNNY     72  38  29 N17G24    30.00F
COFFEYVILLE    SUNNY     73  38  27 N20G26    29.99S
HUTCHINSON     SUNNY     74  36  25 N17G26    30.07F
MEDICINE LODGE   N/A     76  41  28 N16G26    30.07S
NEWTON         SUNNY     70  32  24 NW21      30.07F
PARSONS        SUNNY     72  38  29 N14G23    30.00F
WICHITA INTL   SUNNY     75  37  25 N20G29    30.05F
WICHITA JABRA  SUNNY     73  34  23 N20G30    30.05F
WINFIELD       SUNNY     74  38  27 NW18G26   30.32R
$$

KSZ007>012-019>026-033>040-048>060-102>105-042000-
NORTHEAST KANSAS

CITY           SKY/WX    TMP DP  RH WIND       PRES   REMARKS
CONCORDIA      SUNNY     69  35  28 N16G22    30.08F
EMPORIA        SUNNY     70  35  27 N12G23    30.02F
LAWRENCE       SUNNY     69  41  36 N15G24    30.01S
MANHATTAN      SUNNY     70  36  28 N12       30.05F
OLATHE IND     SUNNY     67  39  35 NW10G28   30.00S
OLATHE EXE     SUNNY     68  35  29 N17G23    29.99F
SALINA         SUNNY     72  36  26 N16       30.07F
TOPEKA BILLARD SUNNY     69  38  32 N15G25    30.02F
TOPEKA FORBES  SUNNY     71  39  31 N17G28    30.02S
$$




USA.gov is the U.S. government's official web portal to all federal, state and local government web resources and services.